Location: Novo Ouro Preto
(19.8840°S, 43.9844°W)
Time: 09:51:51
(UTC+00:00)

Milstar 3 - Pass Details

Date: 18 September 2020
Orbit: 1101 x 5144 km, 28.2° (Epoch: 25 September)

Event Time Altitude Azimuth Distance (km) Brightness Sun altitude
Rises 22:35:16 0° 254° (WSW) 3,916 7.0 -25.2°
Reaches altitude 10° 22:37:47 10° 258° (WSW) 2,987 6.1 -25.8°
Maximum altitude 22:44:27 56° 336° (NNW) 1,536 3.5 -27.3°
Enters shadow 22:47:41 38° 32° (NNE) 2,143 3.9 -28.1°
